[[{"header":{"parameterUnit":"m.s-1","parameterCategory":1,"la1":30.2991,"la2":30.254,"lo1":-89.0895,"lo2":-89.0444,"dy":0.0017,"dx":0.0017,"nx":28,"ny":28,"refTime":"2024-10-08T21:00:00:Z","depth":0,"parameterNumber":2,"parameterNumberName":"U-component_of_WINDS"},"data":[0,0,0,0,0,0,0,0,0,0,0,0,0,0,0,0,0,0,0,0,0,0,0,0,0,0,0,0,0,0,0,0,0,0,0,0,0,0,0,0,0,0,0,0,0,0,0,0,0,0,0,0,0,0,0,0,0,0,-2.1083,-2.1083,0,-2.1134,-2.1135,-2.1136,-2.1161,-2.1161,-2.1161,-2.1161,-2.1215,-2.1217,-2.1218,0,0,0,0,0,0,0,0,0,0,0,0,0,-2.1007,-2.1009,-2.1083,-2.1083,-2.1084,-2.1134,-2.1135,-2.1136,-2.1161,-2.1161,-2.1161,-2.1161,-2.1215,-2.1217,-2.1218,0,0,0,0,0,0,0,0,0,0,0,0,0,-2.1048,-2.1009,-2.1083,-2.1103,-2.1105,-2.1134,-2.1135,-2.1136,-2.1161,-2.1161,-2.1161,-2.1161,-2.1214,-2.1216,-2.1219,-2.1232,0,0,-2.1225,-2.1226,0,0,0,0,0,0,0,0,-2.1045,-2.105,-2.1099,-2.1101,-2.1104,-2.1141,-2.1128,-2.1168,-2.1161,-2.114,-2.1161,-2.1161,-2.1191,-2.1195,-2.1205,-2.1235,-2.1237,-2.1225,-2.1227,-2.1228,-2.1228,0,0,0,0,0,0,0,-2.1043,-2.1048,-2.1103,-2.11,-2.1103,-2.111,-2.1115,-2.1136,-2.1165,-2.1142,-2.1144,-2.1149,-2.1192,-2.1202,-2.1206,-2.1238,-2.1225,-2.1227,-2.1229,-2.1229,-2.1282,-2.1282,0,0,0,0,0,0,-2.1036,-2.1046,-2.1102,-2.1105,-2.1074,-2.1111,-2.1117,-2.1129,-2.1165,-2.117,-2.1149,-2.115,-2.1199,-2.1204,-2.1208,-2.1227,-2.1228,-2.123,-2.1231,-2.1282,-2.1282,-2.1282,0,0,0,0,0,0,-2.1035,-2.1041,-2.11,-2.1076,-2.1084,-2.1112,-2.1126,-2.113,-2.1141,-2.117,-2.1176,-2.1154,-2.1199,-2.1205,-2.1226,-2.1229,-2.1231,-2.1233,-2.1282,-2.1282,-2.1282,-2.1263,0,0,0,0,0,0,-2.1032,-2.104,-2.1045,-2.1076,-2.1085,-2.1116,-2.1126,-2.1131,-2.1144,-2.1146,-2.1177,-2.1182,-2.1199,-2.1223,-2.1228,-2.1232,-2.1234,-2.1282,-2.1282,-2.1282,-2.1264,-2.1262,-2.1262,0,0,0,0,0,-2.103,-2.1038,-2.1045,-2.1052,-2.1092,-2.1116,-2.1121,-2.1141,-2.1144,-2.115,-2.1169,-2.1181,-2.1227,-2.1224,-2.1231,-2.1235,-2.1282,-2.1282,-2.1282,-2.1264,-2.1263,-2.1262,0,0,0,0,0,0,-2.1008,-2.1043,-2.1051,-2.107,-2.109,-2.112,-2.1128,-2.1139,-2.1159,-2.116,-2.1184,-2.1191,-2.121,-2.1225,-2.1221,-2.1251,-2.1256,-2.1257,-2.124,-2.1239,-2.1238,-2.1234,-2.1236,0,0,0,0,0,-2.1005,-2.1021,-2.1051,-2.1065,-2.1074,-2.1099,-2.111,-2.1124,-2.1146,-2.1154,-2.1175,-2.1196,-2.1216,-2.1228,-2.1248,-2.1266,-2.1273,-2.1272,-2.1271,-2.127,-2.1271,-2.1283,-2.1283,-2.1283,-2.1283,-2.1283,0,0,-2.1,-2.1021,-2.1029,-2.1061,-2.1078,-2.1094,-2.1106,-2.1123,-2.1136,-2.1157,-2.1178,-2.1194,-2.1219,-2.1239,-2.1249,-2.1252,-2.1273,-2.1271,-2.127,-2.1271,-2.1283,-2.1283,-2.1283,-2.1283,-2.1283,-2.1283,0,0,-2.0998,-2.1016,-2.1029,-2.1046,-2.1071,-2.1088,-2.1091,-2.112,-2.1131,-2.1153,-2.1169,-2.1185,-2.1218,-2.1236,-2.1249,-2.1254,-2.1266,-2.126,-2.1255,-2.1266,-2.1266,-2.1266,-2.1268,-2.1269,-2.1261,-2.1261,-2.1261,0,-2.0988,-2.1014,-2.1035,-2.1051,-2.1064,-2.1084,-2.1098,-2.1113,-2.1144,-2.1153,-2.1156,-2.1198,-2.1217,-2.1241,-2.1242,-2.1252,-2.1257,-2.1257,-2.1264,-2.1264,-2.1265,-2.1267,-2.1268,-2.126,-2.126,-2.126,-2.126,0,-2.1001,-2.1018,-2.1026,-2.1055,-2.1069,-2.1084,-2.1107,-2.1119,-2.1132,-2.1148,-2.117,-2.1193,-2.1217,-2.1224,-2.1237,-2.125,-2.1252,-2.1259,-2.1265,-2.1263,-2.1266,-2.1267,-2.1259,-2.1259,-2.1259,-2.126,0,0,-2.0987,-2.1027,-2.1029,-2.1043,-2.1073,-2.1087,-2.1103,-2.1126,-2.1137,-2.1157,-2.1172,-2.1199,-2.1207,-2.1222,-2.1236,-2.1246,-2.1249,-2.1252,-2.1253,-2.1251,-2.1266,-2.126,-2.1261,-2.1257,-2.1257,-2.1258,-2.1264,0,-2.099,-2.1019,-2.1038,-2.106,-2.1076,-2.1095,-2.111,-2.113,-2.1146,-2.1162,-2.118,-2.12,-2.1208,-2.1217,-2.1227,-2.1246,-2.1252,-2.1246,-2.1271,-2.1272,-2.1264,-2.1262,-2.1256,-2.1261,-2.1265,-2.1265,-2.1266,0,-2.0997,-2.1017,-2.104,-2.1068,-2.1076,-2.1088,-2.1112,-2.1127,-2.1151,-2.1162,-2.1178,-2.1193,-2.1212,-2.1216,-2.1242,-2.1238,-2.1249,-2.1261,-2.1261,-2.1265,-2.1269,-2.1266,-2.1263,-2.1264,-2.1267,-2.1267,-2.1267,0,-2.0985,-2.1017,-2.1035,-2.1046,-2.108,-2.1088,-2.1102,-2.1126,-2.1139,-2.1159,-2.1168,-2.1191,-2.1204,-2.1221,-2.1243,-2.1244,-2.1267,-2.1273,-2.1277,-2.1277,-2.1281,-2.1281,-2.1281,-2.1288,-2.1288,-2.1288,-2.1288,0,-2.0986,-2.1,-2.103,-2.1041,-2.1057,-2.108,-2.1095,-2.1111,-2.1132,-2.1147,-2.1165,-2.1179,-2.1206,-2.1223,-2.124,-2.126,-2.1265,-2.1275,-2.1279,-2.1273,-2.1272,-2.1281,-2.1282,-2.1289,-2.1289,-2.1289,-2.1288,0,-2.0975,-2.0996,-2.1017,-2.1047,-2.1055,-2.1065,-2.1091,-2.1103,-2.112,-2.1139,-2.1144,-2.1171,-2.1193,-2.1216,-2.1245,-2.1256,-2.1275,-2.1281,-2.1267,-2.127,-2.1273,-2.1272,-2.1279,-2.1281,-2.1287,-2.1287,-2.1287,0,-2.0974,-2.0985,-2.1016,-2.1027,-2.1041,-2.1059,-2.1072,-2.1094,-2.1108,-2.1135,-2.1144,-2.1167,-2.1186,-2.122,-2.1243,-2.1266,-2.1273,-2.1273,-2.1276,-2.127,-2.1273,-2.1272,-2.1273,-2.1272,-2.1272,-2.1272,-2.1272,0,-2.0971,-2.0981,-2.0999,-2.1021,-2.1037,-2.1055,-2.1074,-2.1083,-2.1109,-2.1123,-2.1145,-2.116,-2.119,-2.1213,-2.1239,-2.1254,-2.1268,-2.1271,-2.1273,-2.1267,-2.1258,-2.1263,-2.1265,-2.127,-2.1271,-2.1271,-2.1271,-2.1271,-2.0966,-2.0976,-2.0999,-2.1019,-2.1036,-2.1054,-2.1066,-2.1085,-2.1103,-2.1129,-2.1141,-2.1163,-2.1187,-2.1223,-2.1238,-2.1257,-2.126,-2.1264,-2.1264,-2.1265,-2.1263,-2.1255,-2.1261,-2.1261,-2.1261,-2.1262,-2.1262,0,-2.0963,-2.0979,-2.0997,-2.1023,-2.1039,-2.105,-2.1072,-2.1084,-2.1103,-2.1124,-2.1143,-2.1168,-2.119,-2.1215,-2.1239,-2.1249,-2.1256,-2.1254,-2.1254,-2.1257,-2.1259,-2.1254,-2.1248,-2.1248,-2.1248,-2.1248,-2.1248,-2.1248,-2.0964,-2.0982,-2.0995,-2.1022,-2.1038,-2.1059,-2.1071,-2.1088,-2.1104,-2.1132,-2.115,-2.1166,-2.1188,-2.1214,-2.1235,-2.1242,-2.125,-2.1247,-2.1256,-2.1256,-2.1257,-2.1258,-2.1254,-2.1249,-2.1249,-2.1253,-2.1253,-2.1253]},{"header":{"parameterUnit":"m.s-1","parameterCategory":1,"la1":30.2991,"la2":30.254,"lo1":-89.0895,"lo2":-89.0444,"dy":0.0017,"dx":0.0017,"nx":28,"ny":28,"refTime":"2024-10-08T21:00:00:Z","depth":0,"parameterNumber":3,"parameterNumberName":"V-component_of_WINDS"},"data":[0,0,0,0,0,0,0,0,0,0,0,0,0,0,0,0,0,0,0,0,0,0,0,0,0,0,0,0,0,0,0,0,0,0,0,0,0,0,0,0,0,0,0,0,0,0,0,0,0,0,0,0,0,0,0,0,0,0,-4.4076,-4.4077,0,-4.4107,-4.4107,-4.4108,-4.4144,-4.4144,-4.4145,-4.4145,-4.4175,-4.4175,-4.4175,0,0,0,0,0,0,0,0,0,0,0,0,0,-4.4049,-4.4049,-4.4076,-4.4077,-4.4077,-4.4107,-4.4107,-4.4108,-4.4144,-4.4144,-4.4145,-4.4146,-4.4174,-4.4175,-4.4175,0,0,0,0,0,0,0,0,0,0,0,0,0,-4.4068,-4.4049,-4.4076,-4.4099,-4.4101,-4.4107,-4.4107,-4.4108,-4.4144,-4.4144,-4.4145,-4.4146,-4.4174,-4.4175,-4.4175,-4.4161,0,0,-4.4176,-4.4176,0,0,0,0,0,0,0,0,-4.4067,-4.4069,-4.4095,-4.4097,-4.41,-4.4123,-4.4109,-4.4126,-4.4143,-4.4127,-4.4145,-4.4146,-4.4156,-4.4158,-4.4162,-4.4162,-4.4163,-4.4176,-4.4177,-4.4177,-4.4177,0,0,0,0,0,0,0,-4.4066,-4.4068,-4.4088,-4.4095,-4.4098,-4.4107,-4.4111,-4.4112,-4.4137,-4.4129,-4.4131,-4.4135,-4.4158,-4.4162,-4.4163,-4.4164,-4.4176,-4.4177,-4.4177,-4.4177,-4.4157,-4.4156,0,0,0,0,0,0,-4.4061,-4.4067,-4.4087,-4.4089,-4.4085,-4.4107,-4.4111,-4.4114,-4.4137,-4.4141,-4.4134,-4.4136,-4.4161,-4.4163,-4.4164,-4.4151,-4.4177,-4.4177,-4.4177,-4.4158,-4.4157,-4.4156,0,0,0,0,0,0,-4.406,-4.4063,-4.4086,-4.4079,-4.4083,-4.4107,-4.411,-4.4114,-4.4118,-4.4141,-4.4145,-4.4133,-4.4161,-4.4164,-4.4162,-4.4152,-4.4177,-4.4178,-4.4159,-4.4157,-4.4156,-4.4122,0,0,0,0,0,0,-4.406,-4.4062,-4.4056,-4.4078,-4.4083,-4.4083,-4.4109,-4.4114,-4.4119,-4.4122,-4.4141,-4.4145,-4.4162,-4.4161,-4.4163,-4.4153,-4.4178,-4.416,-4.4158,-4.4157,-4.4124,-4.412,-4.4116,0,0,0,0,0,-4.4058,-4.4044,-4.4056,-4.4058,-4.4076,-4.4082,-4.4085,-4.4105,-4.4118,-4.4113,-4.4128,-4.4145,-4.4153,-4.4161,-4.4163,-4.4153,-4.416,-4.4158,-4.4157,-4.4126,-4.4121,-4.4116,0,0,0,0,0,0,-4.4018,-4.4047,-4.4061,-4.4053,-4.4065,-4.4089,-4.4082,-4.4099,-4.4106,-4.4109,-4.4134,-4.4138,-4.4134,-4.4143,-4.4151,-4.4142,-4.4159,-4.4158,-4.4135,-4.4131,-4.4127,-4.4124,-4.4178,0,0,0,0,0,-4.4009,-4.4012,-4.4037,-4.4028,-4.4034,-4.4057,-4.4061,-4.4076,-4.4089,-4.4094,-4.4109,-4.412,-4.4126,-4.4129,-4.4135,-4.4127,-4.4132,-4.4121,-4.4117,-4.4114,-4.4112,-4.411,-4.4106,-4.415,-4.415,-4.415,0,0,-4.3989,-4.4005,-4.4005,-4.4021,-4.4032,-4.4035,-4.4061,-4.4062,-4.4065,-4.4094,-4.4094,-4.4105,-4.412,-4.4116,-4.4115,-4.4124,-4.4101,-4.4111,-4.4109,-4.4108,-4.4108,-4.4104,-4.41,-4.4149,-4.4149,-4.415,0,0,-4.3954,-4.3966,-4.3962,-4.3973,-4.3991,-4.4007,-4.4006,-4.4028,-4.4037,-4.4038,-4.4061,-4.4065,-4.4073,-4.4084,-4.409,-4.4064,-4.408,-4.4066,-4.4044,-4.4043,-4.4039,-4.4036,-4.4028,-4.4025,-4.4064,-4.4064,-4.4064,0,-4.3926,-4.3932,-4.3956,-4.3957,-4.3964,-4.3994,-4.3989,-4.3999,-4.4017,-4.4022,-4.4032,-4.4046,-4.4058,-4.4058,-4.4052,-4.4056,-4.4056,-4.4063,-4.4038,-4.4035,-4.4033,-4.4025,-4.4022,-4.4062,-4.4062,-4.4063,-4.4063,0,-4.3898,-4.3902,-4.3896,-4.3915,-4.3921,-4.3919,-4.3945,-4.3948,-4.3964,-4.398,-4.3982,-4.3998,-4.4009,-4.4011,-4.4025,-4.4013,-4.4019,-4.4033,-4.4051,-4.4026,-4.402,-4.4017,-4.4059,-4.406,-4.4061,-4.4061,0,0,-4.3835,-4.3871,-4.3868,-4.3879,-4.3902,-4.3905,-4.3906,-4.3919,-4.3922,-4.3935,-4.3937,-4.3946,-4.3961,-4.3968,-4.3985,-4.3983,-4.3964,-4.3999,-4.4,-4.3992,-4.3954,-4.3942,-4.3938,-4.3976,-4.3975,-4.3975,-4.3953,0,-4.3804,-4.3807,-4.3832,-4.3828,-4.3833,-4.3863,-4.3864,-4.3879,-4.3895,-4.3901,-4.3919,-4.3925,-4.3943,-4.3949,-4.3949,-4.3966,-4.3957,-4.3968,-4.3978,-4.3978,-4.3972,-4.3935,-4.3922,-4.39,-4.395,-4.395,-4.3949,0,-4.3767,-4.378,-4.3778,-4.3805,-4.3808,-4.3808,-4.3823,-4.3829,-4.3848,-4.386,-4.387,-4.389,-4.3894,-4.3912,-4.3918,-4.3926,-4.3932,-4.3942,-4.3941,-4.3942,-4.3961,-4.3935,-4.3893,-4.389,-4.3945,-4.3946,-4.3946,0,-4.3722,-4.3739,-4.3741,-4.3749,-4.378,-4.378,-4.3793,-4.3812,-4.382,-4.3833,-4.3839,-4.3852,-4.3859,-4.387,-4.3894,-4.3904,-4.3898,-4.3917,-4.3908,-4.3907,-4.3904,-4.3903,-4.3863,-4.3908,-4.3908,-4.3908,-4.3908,0,-4.3685,-4.3682,-4.3721,-4.3722,-4.3721,-4.375,-4.3748,-4.3764,-4.3782,-4.3787,-4.3814,-4.3818,-4.3849,-4.3858,-4.3876,-4.388,-4.3882,-4.3893,-4.3897,-4.389,-4.3888,-4.3893,-4.3895,-4.3908,-4.3908,-4.3908,-4.3908,0,-4.3633,-4.3659,-4.3663,-4.3694,-4.3702,-4.37,-4.3726,-4.3728,-4.3748,-4.3754,-4.3757,-4.3786,-4.3798,-4.3823,-4.3841,-4.3854,-4.3852,-4.3861,-4.3846,-4.3849,-4.3839,-4.3839,-4.3799,-4.3795,-4.3843,-4.3843,-4.3842,0,-4.3606,-4.3606,-4.3638,-4.3644,-4.3656,-4.3665,-4.3674,-4.3704,-4.3711,-4.3735,-4.3735,-4.3749,-4.3762,-4.3779,-4.3802,-4.3816,-4.3826,-4.3811,-4.3828,-4.3822,-4.3826,-4.3826,-4.3827,-4.3806,-4.3806,-4.3805,-4.3805,0,-4.3557,-4.3572,-4.3583,-4.3601,-4.3611,-4.3625,-4.3641,-4.3645,-4.3679,-4.3687,-4.37,-4.371,-4.373,-4.3744,-4.3763,-4.3776,-4.3796,-4.38,-4.3799,-4.379,-4.3782,-4.3787,-4.3836,-4.38,-4.38,-4.3801,-4.3801,-4.3801,-4.3518,-4.352,-4.3543,-4.3556,-4.3573,-4.3588,-4.3593,-4.3614,-4.3626,-4.3645,-4.3662,-4.3674,-4.3696,-4.3724,-4.3737,-4.3748,-4.3757,-4.3755,-4.3754,-4.3753,-4.3751,-4.3781,-4.3751,-4.3751,-4.3751,-4.3752,-4.3752,0,-4.3471,-4.3488,-4.35,-4.3524,-4.3535,-4.3555,-4.3575,-4.3583,-4.3593,-4.3613,-4.3626,-4.3642,-4.3657,-4.3683,-4.3701,-4.3704,-4.3714,-4.3708,-4.3707,-4.371,-4.374,-4.374,-4.3699,-4.3699,-4.3699,-4.3699,-4.3699,-4.37,-4.3447,-4.3452,-4.347,-4.3484,-4.3502,-4.3515,-4.3525,-4.354,-4.3556,-4.3573,-4.3587,-4.3604,-4.3627,-4.3647,-4.3662,-4.367,-4.3675,-4.3666,-4.3676,-4.3703,-4.3708,-4.3713,-4.3712,-4.3667,-4.3667,-4.3645,-4.3645,-4.3645]}]]